DW3478 Weather Reports


Display with metric or nautical units.
time (UTC)temp
F
wind
direction
speed
MPH
gust
MPH
rain 1hr
in
rain 24hr
in
rain mn
in
humidity
%
barometer
mb
20260502163305 66 286 7.0 12.0 0.00 0.00 0.00 78 1015.1
20260502160804 65 308 6.0 13.0 0.00 0.00 0.00 81 1015.1
20260502160304 65 247 6.0 10.0 0.00 0.00 0.00 78 1015.0
20260502151804 68 262 6.0 10.0 0.00 0.00 0.00 76 1015.4
20260502151304 68 244 5.0 10.0 0.00 0.00 0.00 74 1015.4
20260502150804 68 316 5.0 9.0 0.00 0.00 0.00 73 1015.4
20260502130305 67 238 5.0 7.0 0.00 0.00 0.00 76 1015.9
20260502123305 67 233 3.0 6.0 0.00 0.00 0.00 71 1015.4
20260502122806 67 265 5.0 7.0 0.00 0.00 0.00 75 1015.3
20260502122306 67 246 3.0 6.0 0.00 0.00 0.00 75 1016.2
20260502120805 66 287 5.0 9.0 0.00 0.00 0.00 79 1016.1
20260502120306 66 213 3.0 6.0 0.00 0.00 0.00 78 1015.6
20260502115806 66 245 5.0 7.0 0.00 0.00 0.00 78 1015.6
20260502114805 66 258 4.0 8.0 0.00 0.00 0.00 78 1015.9
20260502113306 64 274 4.0 7.0 0.00 0.00 0.00 76 1015.3
20260502112805 65 241 3.0 6.0 0.00 0.00 0.00 80 1015.4
20260502111805 64 249 5.0 9.0 0.00 0.00 0.00 83 1016.4
20260502110306 65 272 5.0 7.0 0.00 0.00 0.00 80 1016.2
20260502105805 64 268 5.0 7.0 0.00 0.00 0.00 81 1015.6
20260502105306 64 296 5.0 9.0 0.00 0.00 0.00 82 1016.5
20260502104805 64 300 7.0 10.0 0.00 0.00 0.00 80 1015.8
20260502104305 65 276 6.0 10.0 0.00 0.00 0.00 79 1015.8
20260502100305 66 283 4.0 6.0 0.00 0.00 0.00 73 1016.0
20260502091305 64 302 3.0 9.0 0.00 0.00 0.00 77 1015.8
20260502090805 64 289 2.0 5.0 0.00 0.00 0.00 75 1015.7
20260502071305 58 330 1.0 2.0 0.00 0.00 0.00 73 1015.2
20260502070805 57 329 0.0 1.0 0.00 0.00 0.00 76 1015.4
20260502064805 56 1 1.0 3.0 0.00 0.00 0.00 76 1015.3
20260502064305 56 5 2.0 3.0 0.00 0.00 0.00 76 1015.1
20260502063805 56 9 1.0 3.0 0.00 0.00 0.00 76 1015.1
20260502063305 56 334 1.0 2.0 0.00 0.00 0.00 76 1015.3
20260502062306 56 273 1.0 3.0 0.00 0.00 0.00 76 1015.3
20260502061304 56 300 0.0 2.0 0.00 0.00 0.00 75 1015.2
20260502060805 56 321 1.0 3.0 0.00 0.00 0.00 75 1015.2
20260502055805 56 345 1.0 3.0 0.00 0.00 0.00 75 1015.2
20260502055306 56 338 2.0 3.0 0.00 0.00 0.00 75 1014.9
20260502054805 56 3 1.0 2.0 0.00 0.00 0.00 75 1015.0
20260502050305 56 76 1.0 2.0 0.00 0.00 0.00 75 1014.8
20260502045805 56 341 1.0 3.0 0.00 0.00 0.00 75 1014.6
20260502043805 56 27 2.0 5.0 0.00 0.00 0.00 75 1014.4
20260502043305 56 10 2.0 3.0 0.00 0.00 0.00 75 1014.4
20260502042805 56 30 2.0 3.0 0.00 0.00 0.00 75 1013.8
20260502041305 57 10 1.0 3.0 0.00 0.00 0.00 75 1014.5
20260502040805 57 8 2.0 3.0 0.00 0.00 0.00 76 1014.3
20260502040305 57 17 1.0 3.0 0.00 0.00 0.00 76 1014.9
20260502035306 57 32 2.0 3.0 0.00 0.00 0.00 77 1015.2
20260502034804 57 14 2.0 3.0 0.00 0.00 0.00 77 1015.0
20260502034305 57 8 1.0 3.0 0.00 0.00 0.00 77 1014.8
20260502032306 57 0 2.0 3.0 0.00 0.00 0.00 76 1015.2
20260502025306 57 357 1.0 3.0 0.00 0.00 0.00 75 1015.2
20260502023305 57 314 2.0 5.0 0.00 0.00 0.00 74 1015.3
20260502022805 57 2 2.0 3.0 0.00 0.00 0.00 75 1015.3
20260502021804 57 345 1.0 3.0 0.00 0.00 0.00 75 1015.4
20260502021305 57 350 1.0 3.0 0.00 0.00 0.00 76 1015.4
20260502011304 58 348 1.0 3.0 0.00 0.00 0.00 78 1015.8
20260502005805 58 340 2.0 3.0 0.00 0.00 0.00 78 1016.4
20260502002805 59 5 1.0 3.0 0.00 0.00 0.00 78 1016.5
20260502001804 59 2 1.0 3.0 0.00 0.00 0.00 79 1016.4
20260501234804 59 329 0.0 1.0 0.00 0.00 0.00 78 1016.6
20260501234305 59 338 0.0 2.0 0.00 0.00 0.00 78 1016.8
20260501233804 59 337 1.0 3.0 0.00 0.00 0.00 78 1016.7
20260501233305 59 355 1.0 3.0 0.00 0.00 0.00 78 1016.7
20260501232306 59 339 1.0 2.0 0.00 0.00 0.00 77 1016.6
20260501230805 59 345 1.0 2.0 0.00 0.00 0.00 75 1016.6
20260501223804 59 350 1.0 3.0 0.00 0.00 0.00 74 1015.9
20260501223304 59 328 1.0 2.0 0.00 0.00 0.00 74 1017.0
20260501222805 59 342 0.0 2.0 0.00 0.00 0.00 74 1016.9
20260501221804 59 0 1.0 3.0 0.00 0.00 0.00 73 1016.3
20260501221305 59 336 1.0 3.0 0.00 0.00 0.00 73 1016.8
20260501215805 58 5 2.0 3.0 0.00 0.00 0.00 74 1016.7
20260501213304 58 354 1.0 3.0 0.00 0.00 0.00 78 1015.4
20260501212805 58 9 2.0 3.0 0.00 0.00 0.00 79 1016.2
20260501212306 58 6 1.0 2.0 0.00 0.00 0.00 80 1016.1
20260501210304 59 335 0.0 1.0 0.00 0.00 0.00 81 1015.7
20260501205805 59 329 0.0 2.0 0.00 0.00 0.00 81 1015.9
20260501203304 61 0 0.0 0.0 0.00 0.00 0.00 82 1015.4
20260501202804 61 0 0.0 0.0 0.00 0.00 0.00 82 1015.0
20260501194804 61 307 1.0 2.0 0.00 0.00 0.00 82 1015.6
20260501194304 62 294 2.0 2.0 0.00 0.00 0.00 82 1015.6
20260501193805 62 295 2.0 2.0 0.00 0.00 0.00 82 1015.3
20260501193304 62 279 1.0 3.0 0.00 0.00 0.00 82 1015.3
20260501192805 62 293 2.0 3.0 0.00 0.00 0.00 82 1014.8
20260501191804 62 290 2.0 5.0 0.00 0.00 0.00 80 1014.8
20260501191304 62 284 2.0 5.0 0.00 0.00 0.00 80 1014.5
20260501190805 63 277 2.0 5.0 0.00 0.00 0.00 79 1015.0
20260501190305 63 293 2.0 7.0 0.00 0.00 0.00 79 1014.8
20260501185805 63 296 2.0 6.0 0.00 0.00 0.00 79 1014.8
20260501185306 63 290 2.0 6.0 0.00 0.00 0.00 78 1014.8
20260501183804 64 310 3.0 5.0 0.00 0.00 0.00 78 1014.8
20260501183305 64 299 3.0 7.0 0.00 0.00 0.00 78 1014.4
20260501181804 65 293 2.0 5.0 0.00 0.00 0.00 77 1014.8
20260501181304 65 300 3.0 6.0 0.00 0.00 0.00 76 1014.9
20260501180804 65 287 5.0 10.0 0.00 0.00 0.00 76 1014.7
20260501180304 65 295 5.0 10.0 0.00 0.00 0.00 75 1014.2
20260501175805 66 280 3.0 7.0 0.00 0.00 0.00 76 1014.1
20260501175306 64 267 3.0 5.0 0.00 0.00 0.00 77 1014.8
20260501174804 65 261 3.0 7.0 0.00 0.00 0.00 76 1014.8
20260501173804 65 311 2.0 5.0 0.00 0.00 0.00 76 1014.9
20260501173304 64 306 2.0 7.0 0.00 0.00 0.00 75 1014.6
20260501170804 66 286 3.0 10.0 0.00 0.00 0.00 70 1014.6
20260501165804 67 289 2.0 10.0 0.00 0.00 0.00 73 1015.0
20260501164304 66 312 3.0 7.0 0.00 0.00 0.00 72 1014.9
20260501163804 66 275 5.0 7.0 0.00 0.00 0.00 73 1014.6